Weather History for Custer, SD

Change the Weather History Date:

Friday, March 9, 2012

  Actual Average Record
Temperature  
Mean Temperature 43 °F 30 °F  
Max Temperature 58 °F 40 °F 64 °F (1989)
Min Temperature 27 °F 20 °F -16 °F (1964)
Degree Days  
Heating Degree Days 22 35  
Month to date heating degree days 310 323  
Since 1 July heating degree days 5920 6158  
Cooling Degree Days 0 0  
Month to date cooling degree days 0 0  
Year to date cooling degree days 0 0  
Moisture  
Dew Point 13 °F    
Average Humidity 34    
Maximum Humidity 53    
Minimum Humidity 14    
Precipitation  
Precipitation 0.00 in 0.02 in 0.41 in (1970)
Month to date precipitation T 0.19  
Year to date precipitation 0.20 1.05  
Sea Level Pressure  
Sea Level Pressure 30.21 in    
Wind  
Wind Speed 9 mph (West)    
Max Wind Speed 22 mph    
Max Gust Speed 30 mph    
Visibility 10 miles    
Events      
T = Trace of Precipitation, MM = Missing Value Source: NWS Daily Summary

Daily Weather History Graph

Daily Weather History Graph

Search for Another Location

Airport:

Trip Planner

Search our weather history database for the weather conditions in past years. The results will help you decide how hot, cold, wet, or windy it might be!

Date:

Astronomy

Mar. 09, 2012 Rise Set
Actual Time 6:16 AM MST 5:53 PM MST
Civil Twilight 5:47 AM MST 6:22 PM MST
Nautical Twilight 5:14 AM MST 6:55 PM MST
Astronomical Twilight 4:40 AM MST 7:29 PM MST
Moon 8:02 PM MST (3/9) 6:31 AM MST (3/9)
Length of Visible Light 12h 34m
Length of Day
11h 37m
Full, 97% of the Moon is Illuminated
Mar 9
Full
Mar 14
Last Quarter
Mar 22
New
Mar 30
First Quarter
Apr 6
Full

Hourly Weather History & Observations

Time (MST) Temp. Windchill Dew Point Humidity Pressure Visibility Wind Dir Wind Speed Gust Speed Precip Events Conditions
12:53 AM 28.0 °F 20.8 °F 14.0 °F 56% 30.41 in 10.0 mi West 6.9 mph - N/A   Clear
1:53 AM 28.9 °F 23.9 °F 12.9 °F 51% 30.38 in 10.0 mi West 4.6 mph - N/A   Clear
2:53 AM 28.0 °F 21.7 °F 14.0 °F 56% 30.38 in 10.0 mi West 5.8 mph - N/A   Clear
3:53 AM 32.0 °F 24.2 °F 14.0 °F 48% 30.35 in 10.0 mi West 9.2 mph - N/A   Clear
4:53 AM 33.1 °F 26.9 °F 14.0 °F 46% 30.35 in 10.0 mi West 6.9 mph - N/A   Clear
5:53 AM 34.0 °F 28.0 °F 10.9 °F 38% 30.36 in 10.0 mi West 6.9 mph - N/A   Clear
6:53 AM 37.0 °F 29.8 °F 10.0 °F 33% 30.35 in 10.0 mi West 10.4 mph - N/A   Clear
7:53 AM 42.1 °F 37.7 °F 10.0 °F 27% 30.33 in 10.0 mi West 6.9 mph - N/A   Clear
8:53 AM 46.9 °F - 10.0 °F 22% 30.32 in 10.0 mi WSW 11.5 mph - N/A   Clear
9:53 AM 50.0 °F - 10.0 °F 20% 30.29 in 10.0 mi West 16.1 mph - N/A   Clear
10:53 AM 51.1 °F - 9.0 °F 18% 30.26 in 10.0 mi West 10.4 mph 17.3 mph N/A   Clear
11:53 AM 53.1 °F - 6.1 °F 15% 30.24 in 10.0 mi WSW 12.7 mph 19.6 mph N/A   Clear
12:53 PM 55.9 °F - 7.0 °F 14% 30.21 in 10.0 mi WSW 9.2 mph - N/A   Clear
1:53 PM 55.0 °F - 10.0 °F 17% 30.18 in 10.0 mi West 17.3 mph - N/A   Clear
2:53 PM 55.9 °F - 14.0 °F 19% 30.15 in 10.0 mi West 16.1 mph 23.0 mph N/A   Clear
3:53 PM 57.0 °F - 14.0 °F 18% 30.10 in 10.0 mi West 8.1 mph 20.7 mph N/A   Clear
4:53 PM 55.9 °F - 10.0 °F 16% 30.09 in 10.0 mi WSW 8.1 mph 20.7 mph N/A   Clear
5:53 PM 52.0 °F - 10.9 °F 19% 30.09 in 10.0 mi WSW 6.9 mph - N/A   Clear
6:53 PM 48.9 °F - 12.9 °F 24% 30.09 in 10.0 mi West 9.2 mph - N/A   Clear
7:53 PM 46.9 °F - 17.1 °F 30% 30.06 in 10.0 mi West 10.4 mph 17.3 mph N/A   Clear
8:53 PM 42.1 °F 36.6 °F 18.0 °F 38% 30.06 in 10.0 mi West 9.2 mph - N/A   Clear
9:53 PM 43.0 °F 39.5 °F 19.0 °F 38% 30.02 in 10.0 mi WSW 5.8 mph - N/A   Clear
10:53 PM 43.0 °F 38.2 °F 18.0 °F 37% 30.01 in 10.0 mi West 8.1 mph - N/A   Clear
11:53 PM 41.0 °F 37.1 °F 17.1 °F 38% 29.99 in 10.0 mi WSW 5.8 mph - N/A   Clear